Location: Bergnerzell
(49.1816°N, 10.2565°E)
Time: 04:32:40
(UTC+00:00)

IDEFIX/ARIANE 42P - Pass Details

Date: 20 August 2024
Orbit: 782 x 799 km, 98.5° (Epoch: 08 September)

Event Time Altitude Azimuth Distance (km) Brightness Sun altitude
Rises 02:45:30 0° 3° (N) 3,287 6.4 -14.0°
Reaches altitude 10° 02:48:25 10° 347° (NNW) 2,357 5.4 -13.7°
Maximum altitude 02:51:58 19° 303° (WNW) 1,805 4.2 -13.2°
Enters shadow 02:54:48 13° 266° (W) 2,167 4.3 -12.8°
